Location: ?????
(55.6500°N, 37.2500°E)
Time: 09:48:43
(UTC+00:00)

Cosmos 2056 Rocket - Pass Details

Date: 19 May 2025
Orbit: 738 x 796 km, 74.0° (Epoch: 12 June)

Event Time Altitude Azimuth Distance (km) Brightness Sun altitude
Rises 20:58:36 0° 332° (NNW) 3,296 8.2 -14.1°
Reaches altitude 10° 21:01:02 10° 335° (NNW) 2,356 7.2 -14.2°
Maximum altitude 21:06:23 69° 59° (ENE) 836 3.8 -14.3°
Enters shadow 21:10:41 15° 141° (SE) 1,961 5.1 -14.3°
